Location: Unspecified
(51.0950°N, 12.9690°E)
Time: 22:55:10
(UTC+00:00)

NOSS 2-2 (E) - Pass Details

Date: 28 October 2021
Orbit: 448 x 1756 km, 63.3° (Epoch: 27 November)

Event Time Altitude Azimuth Distance (km) Brightness Sun altitude
Rises 17:35:46 0° 203° (SSW) 2,454 7.0 -17.2°
Reaches altitude 10° 17:37:53 10° 195° (SSW) 1,572 5.8 -17.6°
Enters shadow 17:40:43 38° 141° (SE) 718 3.6 -18.0°
